| time (UTC) | temp F | wind direction | speed MPH | gust MPH | rain 1hr in | rain 24hr in | rain mn in | humidity % | barometer mb |
| 20260505041543 | 66 | 198 | 2.0 | 7.0 | 0.00 | 0.00 | 0.00 | 61 | 1007.3 |
| 20260505040026 | 66 | 219 | 3.0 | 6.0 | 0.00 | 0.00 | 0.00 | 61 | 1007.3 |
| 20260505034526 | 66 | 155 | 2.0 | 6.0 | 0.00 | 0.00 | 0.00 | 62 | 1007.3 |
| 20260505033028 | 65 | 134 | 3.0 | 7.0 | 0.00 | 0.00 | 0.00 | 63 | 1007.2 |
| 20260505031530 | 65 | 204 | 1.0 | 5.0 | 0.00 | 0.00 | 0.00 | 64 | 1007.2 |
| 20260505030020 | 65 | 165 | 2.0 | 6.0 | 0.00 | 0.00 | 0.00 | 65 | 1007.1 |
| 20260505024517 | 65 | 196 | 2.0 | 5.0 | 0.00 | 0.00 | 0.00 | 66 | 1007.1 |
| 20260505023027 | 65 | 123 | 2.0 | 5.0 | 0.00 | 0.00 | 0.00 | 66 | 1007.1 |
| 20260505021528 | 65 | 150 | 1.0 | 6.0 | 0.00 | 0.00 | 0.00 | 66 | 1007.0 |
| 20260505020033 | 65 | 141 | 2.0 | 6.0 | 0.00 | 0.00 | 0.00 | 66 | 1006.9 |
| 20260505014526 | 65 | 165 | 2.0 | 6.0 | 0.00 | 0.00 | 0.00 | 66 | 1006.9 |
| 20260505013024 | 65 | 140 | 1.0 | 4.0 | 0.00 | 0.00 | 0.00 | 64 | 1006.7 |
| 20260505011522 | 66 | 167 | 1.0 | 3.0 | 0.00 | 0.00 | 0.00 | 61 | 1006.7 |
| 20260505010020 | 67 | 168 | 1.0 | 4.0 | 0.00 | 0.00 | 0.00 | 59 | 1006.7 |
| 20260505004526 | 68 | 142 | 1.0 | 4.0 | 0.00 | 0.00 | 0.00 | 57 | 1006.8 |
| 20260505003029 | 69 | 202 | 2.0 | 7.0 | 0.00 | 0.00 | 0.00 | 55 | 1006.7 |
| 20260505001528 | 69 | 239 | 1.0 | 8.0 | 0.00 | 0.00 | 0.00 | 53 | 1006.7 |
| 20260505000031 | 70 | 227 | 2.0 | 14.0 | 0.00 | 0.00 | 0.00 | 52 | 1006.7 |
| 20260504234524 | 70 | 216 | 4.0 | 11.0 | 0.00 | 0.00 | 0.00 | 52 | 1006.8 |
| 20260504233020 | 70 | 146 | 3.0 | 10.0 | 0.00 | 0.00 | 0.00 | 54 | 1006.7 |
| 20260504231517 | 70 | 223 | 2.0 | 8.0 | 0.00 | 0.00 | 0.00 | 54 | 1006.9 |
| 20260504230011 | 69 | 242 | 4.0 | 11.0 | 0.00 | 0.00 | 0.00 | 54 | 1007.1 |
| 20260504224517 | 69 | 242 | 3.0 | 9.0 | 0.00 | 0.00 | 0.00 | 55 | 1007.4 |
| 20260504223012 | 69 | 128 | 3.0 | 10.0 | 0.00 | 0.00 | 0.00 | 55 | 1007.5 |
| 20260504221511 | 69 | 242 | 6.0 | 18.0 | 0.00 | 0.00 | 0.00 | 55 | 1007.7 |
| 20260504220012 | 69 | 341 | 8.0 | 17.0 | 0.00 | 0.00 | 0.00 | 54 | 1007.8 |
| 20260504214523 | 70 | 222 | 7.0 | 17.0 | 0.00 | 0.00 | 0.00 | 52 | 1007.7 |
| 20260504213015 | 71 | 207 | 9.0 | 18.0 | 0.00 | 0.00 | 0.00 | 49 | 1007.6 |
| 20260504211512 | 70 | 233 | 6.0 | 10.0 | 0.00 | 0.00 | 0.00 | 52 | 1007.4 |
| 20260504210018 | 69 | 230 | 5.0 | 16.0 | 0.00 | 0.00 | 0.00 | 53 | 1007.6 |
| 20260504204514 | 69 | 192 | 4.0 | 20.0 | 0.00 | 0.00 | 0.00 | 55 | 1008.0 |
| 20260504203018 | 69 | 228 | 6.0 | 20.0 | 0.00 | 0.00 | 0.00 | 54 | 1008.2 |
| 20260504201513 | 70 | 269 | 14.0 | 25.0 | 0.00 | 0.00 | 0.00 | 51 | 1008.6 |
| 20260504200019 | 73 | 245 | 10.0 | 23.0 | 0.00 | 0.00 | 0.00 | 49 | 1008.4 |
| 20260504194516 | 73 | 213 | 7.0 | 27.0 | 0.00 | 0.00 | 0.00 | 51 | 1008.4 |
| 20260504193014 | 73 | 175 | 5.0 | 22.0 | 0.00 | 0.00 | 0.00 | 51 | 1008.1 |
| 20260504191515 | 72 | 201 | 6.0 | 17.0 | 0.00 | 0.00 | 0.00 | 50 | 1008.2 |
| 20260504190015 | 72 | 250 | 6.0 | 19.0 | 0.00 | 0.00 | 0.00 | 50 | 1008.0 |
| 20260504184526 | 71 | 266 | 5.0 | 16.0 | 0.00 | 0.00 | 0.00 | 52 | 1008.1 |
| 20260504183024 | 70 | 232 | 7.0 | 13.0 | 0.00 | 0.00 | 0.00 | 51 | 1008.2 |
| 20260504181516 | 70 | 173 | 6.0 | 13.0 | 0.00 | 0.00 | 0.00 | 53 | 1008.4 |
| 20260504180017 | 70 | 210 | 6.0 | 16.0 | 0.00 | 0.00 | 0.00 | 53 | 1008.4 |
| 20260504174516 | 70 | 234 | 6.0 | 13.0 | 0.00 | 0.00 | 0.00 | 52 | 1008.6 |
| 20260504173014 | 69 | 173 | 4.0 | 15.0 | 0.00 | 0.00 | 0.00 | 55 | 1008.7 |
| 20260504171516 | 68 | 166 | 6.0 | 14.0 | 0.00 | 0.00 | 0.00 | 55 | 1008.8 |
| 20260504081519 | 51 | 142 | 1.0 | 7.0 | 0.00 | 0.00 | 0.00 | 60 | 1011.5 |